YO8RXT-3 Weather Reports


Display with metric or nautical units.
time (UTC)temp
F
wind
direction
speed
MPH
gust
MPH
rain 1hr
in
rain 24hr
in
rain mn
in
humidity
%
barometer
mb
20260502150502 55 50 8.0 0.0 0.00 0.00 0.00 28 1023.0
20260502130502 55 70 9.0 0.0 0.00 0.00 0.00 33 1023.0
20260502123503 55 70 7.0 0.0 0.00 0.00 0.00 33 1024.0
20260502120503 57 70 9.0 0.0 0.00 0.00 0.00 31 1024.0
20260502113502 55 60 9.0 0.0 0.00 0.00 0.00 31 1024.0
20260502110502 55 70 9.0 0.0 0.00 0.00 0.00 31 1024.0
20260502103503 55 100 8.0 0.0 0.00 0.00 0.00 33 1024.0
20260502100502 54 50 8.0 0.0 0.00 0.00 0.00 38 1024.0
20260502090503 54 140 7.0 0.0 0.00 0.00 0.00 44 1024.0
20260502070503 48 70 3.0 0.0 0.00 0.00 0.00 62 1024.0
20260502063502 48 60 3.0 0.0 0.00 0.00 0.00 62 1024.0
20260502060502 46 310 3.0 0.0 0.00 0.00 0.00 76 1024.0
20260502053502 46 260 3.0 0.0 0.00 0.00 0.00 71 1024.0
20260502050502 46 2.0 0.0 0.00 0.00 0.00 71 1024.0
20260502043502 45 250 3.0 0.0 0.00 0.00 0.00 76 1023.0
20260502040502 45 250 3.0 0.0 0.00 0.00 0.00 71 1023.0
20260502033503 45 2.0 0.0 0.00 0.00 0.00 71 1023.0
20260502030503 45 280 5.0 0.0 0.00 0.00 0.00 71 1023.0
20260502023502 43 220 3.0 0.0 0.00 0.00 0.00 81 1023.0
20260502020503 45 340 5.0 0.0 0.00 0.00 0.00 71 1023.0
20260502013502 45 320 6.0 0.0 0.00 0.00 0.00 71 1023.0
20260502010503 45 330 8.0 0.0 0.00 0.00 0.00 71 1023.0
20260502003503 45 340 9.0 0.0 0.00 0.00 0.00 71 1023.0
20260502000501 45 330 7.0 0.0 0.00 0.00 0.00 71 1023.0
20260501233502 46 340 6.0 0.0 0.00 0.00 0.00 66 1023.0
20260501230503 46 330 7.0 0.0 0.00 0.00 0.00 66 1023.0
20260501223503 45 330 8.0 0.0 0.00 0.00 0.00 76 1024.0
20260501220502 48 310 5.0 0.0 0.00 0.00 0.00 62 1024.0
20260501213503 48 340 5.0 0.0 0.00 0.00 0.00 66 1024.0
20260501210503 50 10 7.0 0.0 0.00 0.00 0.00 58 1024.0
20260501203502 50 20 7.0 0.0 0.00 0.00 0.00 58 1024.0
20260501200502 50 340 8.0 0.0 0.00 0.00 0.00 54 1024.0
20260501193503 50 320 8.0 0.0 0.00 0.00 0.00 50 1024.0
20260501190503 52 320 6.0 0.0 0.00 0.00 0.00 47 1023.0
20260501183503 50 340 5.0 0.0 0.00 0.00 0.00 47 1023.0
20260501180503 52 280 3.0 0.0 0.00 0.00 0.00
20260501173503 52 270 2.0 0.0 0.00 0.00 0.00 38 1023.0
20260501170502 52 300 5.0 0.0 0.00 0.00 0.00 38 1023.0
20260501163503 54 300 8.0 0.0 0.00 0.00 0.00 35 1023.0
20260501160503 54 300 10.0 0.0 0.00 0.00 0.00 33 1023.0